Regional Weather Roundup
Issued by NWS Charleston, WV

Home | Current Version | Previous Version | Graphics & Text | Print | Product List | Glossary On
Versions: 1 2 3 4 5 6 7 8 9 10 11 12 13 14 15 16 17 18 19 20 21 22 23 24 25 26 27 28
000
ASUS41 KRLX 051010
RWRRLX
West Virginia Regional Weather Roundup
National Weather Service Charleston WV
600 AM EDT THU MAY 05 2016

Note: "fair" indicates few or no clouds below 12,000 feet with no
significant weather and/or obstructions to visibility.

WVZ003-051100-
Northern Panhandle of West Virginia

CITY           SKY/WX    TMP DP  RH WIND       PRES   REMARKS
WHEELING       CLOUDY    49  46  90 CALM      29.66S FOG
$$

WVZ009-051100-
Northwest West Virginia

CITY           SKY/WX    TMP DP  RH WIND       PRES   REMARKS
PARKERSBURG    LGT RAIN  46  44  93 NW8       29.71R
$$

WVZ006-051100-
Western West Virginia

CITY           SKY/WX    TMP DP  RH WIND       PRES   REMARKS
HUNTINGTON     CLOUDY    45  38  76 VRB6      29.71S
$$

WVZ015-051100-
West Central West Virginia

CITY           SKY/WX    TMP DP  RH WIND       PRES   REMARKS
CHARLESTON     CLOUDY    45  41  86 VRB7      29.69S
$$

WVZ022-031-051100-
North Central West Virginia

CITY           SKY/WX    TMP DP  RH WIND       PRES   REMARKS
CLARKSBURG     CLOUDY    48  47  96 N3        29.65S FOG
MORGANTOWN     CLOUDY    50  45  83 CALM      29.66S
$$

WVZ025-035-042-045-051100-
Southern West Virginia

CITY           SKY/WX    TMP DP  RH WIND       PRES   REMARKS
BECKLEY        LGT RAIN  42  40  92 NW7       29.65S
LOGAN          NOT AVBL
BLUEFIELD      LGT RAIN  40  38  93 NW9       29.66S
LEWISBURG      CLOUDY    46  45  97 CALM      29.63S
$$

WVZ047-051100-
Northern Mountains of West Virginia

CITY           SKY/WX    TMP DP  RH WIND       PRES   REMARKS
ELKINS         RAIN      46  43  89 CALM      29.65S FOG
$$

WVZ052-051100-
Eastern Panhandle of West Virginia

CITY           SKY/WX    TMP DP  RH WIND       PRES   REMARKS
MARTINSBURG    CLOUDY    50  48  93 CALM      29.65F
PETERSBURG     CLOUDY    53  50  89 CALM      29.64S
$$




USA.gov is the U.S. government's official web portal to all federal, state and local government web resources and services.